This is the latest recevied weather packets stored in our database for station/object IZ5MJO-13. If no packets are shown the sender has not sent any weather packets the latest 10 day(s).
| Time | Temp. | Humidity | Pressure | Rain* | Wind** | Luminosity | Snow |
|---|---|---|---|---|---|---|---|
| 1787852099 | 31.67° C | 42% | 1007.3 hPa | - | - | - | - |
| 1787851198 | 33.33° C | 42% | 1007.4 hPa | - | - | - | - |
| 1787850298 | 35° C | 39% | 1007.3 hPa | - | - | - | - |
| 1787849398 | 35.56° C | 38% | 1007.5 hPa | - | - | - | - |
| 1787848497 | 36.11° C | 37% | 1007.9 hPa | - | - | - | - |
| 1787847597 | 37.22° C | 36% | 1007.9 hPa | - | - | - | - |
| 1787846697 | 37.22° C | 35% | 1008 hPa | - | - | - | - |
| 1787845797 | 37.78° C | 34% | 1007.8 hPa | - | - | - | - |
| 1787844897 | 37.78° C | 36% | 1007.8 hPa | - | - | - | - |
| 1787843996 | 37.78° C | 35% | 1007.7 hPa | - | - | - | - |
| 1787843096 | 38.33° C | 34% | 1007.7 hPa | - | - | - | - |
| 1787842196 | 38.89° C | 34% | 1007.8 hPa | - | - | - | - |
| 1787841296 | 37.78° C | 34% | 1007.7 hPa | - | - | - | - |
| 1787840395 | 37.22° C | 35% | 1007.6 hPa | - | - | - | - |
| 1787839495 | 37.78° C | 34% | 1007.5 hPa | - | - | - | - |
| 1787838595 | 36.67° C | 35% | 1007.5 hPa | - | - | - | - |
| 1787837695 | 36.67° C | 34% | 1007.5 hPa | - | - | - | - |
| 1787836794 | 36.67° C | 34% | 1007.6 hPa | - | - | - | - |
| 1787835894 | 37.78° C | 34% | 1007.5 hPa | - | - | - | - |
| 1787834993 | 36.67° C | 35% | 1007.6 hPa | - | - | - | - |
| 1787834093 | 37.22° C | 35% | 1007.7 hPa | - | - | - | - |
| 1787833193 | 35.56° C | 36% | 1008 hPa | - | - | - | - |
| 1787832293 | 35° C | 37% | 1008 hPa | - | - | - | - |
| 1787831399 | 35° C | 38% | 1008 hPa | - | - | - | - |
| 1787830592 | 34.44° C | 39% | 1007.8 hPa | - | - | - | - |
* Rain since midnight (hover to see other rain measurements)
** Current wind speed in m/s (hover to see current wind gust speed)